Simultaneous Nadir Overpasses (SNOs) Predictions

Prediction of SNOs between AQUA and NOAA-19 Satellite Orbit:

Table of predicted SNOs for the next 14.0 days since TLE Epoch: 7/7/2017
Index Date (AQUA) Time (AQUA) Lat,Lon (AQUA) SZA (AQUA ) Date (NOAA-19) Time (NOAA-19) Lat,Lon (NOAA-19) SZA (NOAA-19 ) Distance(km) Time Diff (sec)
1 07/08/2017 01:57:35 -80.94, -69.64 119.14 07/08/2017 01:57:17 -80.95, -69.69 119.11 1.71 18
2 07/10/2017 07:31:18 80.95, 26.84 61.16 07/10/2017 07:31:09 80.95, 26.84 61.17 0.72 9
3 07/12/2017 13:05:03 -80.97, 123.12 118.49 07/12/2017 13:04:53 -80.95, 123.21 118.50 2.31 10
4 07/14/2017 18:38:46 80.96,-140.17 61.83 07/14/2017 18:38:46 80.95,-140.16 61.83 0.57 0
5 07/17/2017 00:12:30 -80.95, -43.53 117.82 07/17/2017 00:12:29 -80.95, -43.57 117.81 0.79 1
6 07/19/2017 05:46:13 80.95, 53.08 62.57 07/19/2017 05:46:22 80.95, 53.07 62.57 0.46 9




NCC Satellite Simultaneous Nadir Overpasses (SNOs) Prediction Service
